Year,Month,Day,Hour,Minute,Value (Times are PST for windgust in km/hr)
2007,03,11,00,00,0.00
2007,03,11,00,01,0.00
2007,03,11,00,02,0.00
2007,03,11,00,03,0.00
2007,03,11,00,04,0.00
2007,03,11,00,05,0.00
2007,03,11,00,06,0.00
2007,03,11,00,07,0.00
2007,03,11,00,08,0.00
2007,03,11,00,09,0.00
2007,03,11,00,10,0.00
2007,03,11,00,11,0.00
2007,03,11,00,12,0.00
2007,03,11,00,13,0.00
2007,03,11,00,14,0.00
2007,03,11,00,15,0.00
2007,03,11,00,16,0.00
2007,03,11,00,17,0.00
2007,03,11,00,18,0.00
2007,03,11,00,19,0.00
2007,03,11,00,20,0.00
2007,03,11,00,21,0.00
2007,03,11,00,22,0.00
2007,03,11,00,23,0.00
2007,03,11,00,24,0.00
2007,03,11,00,25,0.00
2007,03,11,00,26,0.00
2007,03,11,00,27,0.00
2007,03,11,00,28,0.00
2007,03,11,00,29,0.00
2007,03,11,00,30,0.00
2007,03,11,00,31,0.00
2007,03,11,00,32,0.00
2007,03,11,00,33,1.60
2007,03,11,00,34,1.60
2007,03,11,00,35,1.60
2007,03,11,00,36,0.00
2007,03,11,00,37,1.60
2007,03,11,00,38,0.00
2007,03,11,00,39,1.60
2007,03,11,00,40,4.80
2007,03,11,00,41,4.80
2007,03,11,00,42,1.60
2007,03,11,00,43,0.00
2007,03,11,00,44,0.00
2007,03,11,00,45,0.00
2007,03,11,00,46,1.60
2007,03,11,00,47,0.00
2007,03,11,00,48,0.00
2007,03,11,00,49,1.60
2007,03,11,00,50,1.60
2007,03,11,00,51,0.00
2007,03,11,00,52,1.60
2007,03,11,00,53,1.60
2007,03,11,00,54,0.00
2007,03,11,00,55,0.00
2007,03,11,00,56,0.00
2007,03,11,00,57,0.00
2007,03,11,00,58,0.00
2007,03,11,00,59,0.00
2007,03,11,01,00,0.00
2007,03,11,01,01,0.00
2007,03,11,01,02,0.00
2007,03,11,01,03,0.00
2007,03,11,01,04,0.00
2007,03,11,01,05,0.00
2007,03,11,01,06,0.00
2007,03,11,01,07,0.00
2007,03,11,01,08,0.00
2007,03,11,01,09,0.00
2007,03,11,01,10,0.00
2007,03,11,01,11,0.00
2007,03,11,01,12,0.00
2007,03,11,01,13,0.00
2007,03,11,01,14,0.00
2007,03,11,01,15,0.00
2007,03,11,01,16,0.00
2007,03,11,01,17,0.00
2007,03,11,01,18,0.00
2007,03,11,01,19,0.00
2007,03,11,01,20,1.60
2007,03,11,01,21,0.00
2007,03,11,01,22,0.00
2007,03,11,01,23,1.60
2007,03,11,01,24,0.00
2007,03,11,01,25,0.00
2007,03,11,01,26,1.60
2007,03,11,01,27,1.60
2007,03,11,01,28,0.00
2007,03,11,01,29,0.00
2007,03,11,01,30,0.00
2007,03,11,01,31,0.00
2007,03,11,01,32,0.00
2007,03,11,01,33,0.00
2007,03,11,01,34,1.60
2007,03,11,01,35,1.60
2007,03,11,01,36,1.60
2007,03,11,01,37,0.00
2007,03,11,01,38,0.00
2007,03,11,01,39,0.00
2007,03,11,01,40,0.00
2007,03,11,01,41,0.00
2007,03,11,01,42,0.00
2007,03,11,01,43,0.00
2007,03,11,01,44,0.00
2007,03,11,01,45,0.00
2007,03,11,01,46,0.00
2007,03,11,01,47,0.00
2007,03,11,01,48,0.00
2007,03,11,01,49,0.00
2007,03,11,01,50,1.60
2007,03,11,01,51,1.60
2007,03,11,01,52,0.00
2007,03,11,01,53,0.00
2007,03,11,01,54,0.00
2007,03,11,01,55,0.00
2007,03,11,01,56,0.00
2007,03,11,01,57,0.00
2007,03,11,01,58,0.00
2007,03,11,01,59,0.00
2007,03,11,03,00,0.00
2007,03,11,03,01,0.00
2007,03,11,03,02,0.00
2007,03,11,03,03,0.00
2007,03,11,03,04,0.00
2007,03,11,03,05,0.00
2007,03,11,03,06,0.00
2007,03,11,03,07,0.00
2007,03,11,03,08,0.00
2007,03,11,03,09,0.00
2007,03,11,03,10,0.00
2007,03,11,03,11,0.00
2007,03,11,03,12,0.00
2007,03,11,03,13,0.00
2007,03,11,03,14,0.00
2007,03,11,03,15,0.00
2007,03,11,03,16,0.00
2007,03,11,03,17,0.00
2007,03,11,03,18,0.00
2007,03,11,03,19,0.00
2007,03,11,03,20,0.00
2007,03,11,03,21,0.00
2007,03,11,03,22,0.00
2007,03,11,03,23,0.00
2007,03,11,03,24,0.00
2007,03,11,03,25,0.00
2007,03,11,03,26,0.00
2007,03,11,03,27,0.00
2007,03,11,03,28,0.00
2007,03,11,03,29,0.00
2007,03,11,03,30,0.00
2007,03,11,03,31,0.00
2007,03,11,03,32,0.00
2007,03,11,03,33,0.00
2007,03,11,03,34,0.00
2007,03,11,03,35,0.00
2007,03,11,03,36,0.00
2007,03,11,03,37,0.00
2007,03,11,03,38,0.00
2007,03,11,03,39,0.00
2007,03,11,03,40,0.00
2007,03,11,03,41,0.00
2007,03,11,03,42,0.00
2007,03,11,03,43,0.00
2007,03,11,03,44,0.00
2007,03,11,03,45,0.00
2007,03,11,03,46,0.00
2007,03,11,03,47,0.00
2007,03,11,03,48,0.00
2007,03,11,03,49,0.00
2007,03,11,03,50,0.00
2007,03,11,03,51,1.60
2007,03,11,03,52,1.60
2007,03,11,03,53,1.60
2007,03,11,03,54,0.00
2007,03,11,03,55,0.00
2007,03,11,03,56,0.00
2007,03,11,03,57,0.00
2007,03,11,03,58,1.60
2007,03,11,03,59,0.00
2007,03,11,04,00,0.00
2007,03,11,04,01,0.00
2007,03,11,04,02,0.00
2007,03,11,04,03,0.00
2007,03,11,04,04,0.00
2007,03,11,04,05,0.00
2007,03,11,04,06,0.00
2007,03,11,04,07,0.00
2007,03,11,04,08,0.00
2007,03,11,04,09,0.00
2007,03,11,04,10,0.00
2007,03,11,04,11,0.00
2007,03,11,04,12,0.00
2007,03,11,04,13,0.00
2007,03,11,04,14,1.60
2007,03,11,04,15,1.60
2007,03,11,04,16,0.00
2007,03,11,04,17,0.00
2007,03,11,04,18,0.00
2007,03,11,04,19,1.60
2007,03,11,04,20,0.00
2007,03,11,04,21,0.00
2007,03,11,04,22,0.00
2007,03,11,04,23,0.00
2007,03,11,04,24,0.00
2007,03,11,04,25,0.00
2007,03,11,04,26,0.00
2007,03,11,04,27,0.00
2007,03,11,04,28,0.00
2007,03,11,04,29,0.00
2007,03,11,04,30,0.00
2007,03,11,04,31,0.00
2007,03,11,04,32,0.00
2007,03,11,04,33,0.00
2007,03,11,04,34,0.00
2007,03,11,04,35,0.00
2007,03,11,04,36,0.00
2007,03,11,04,37,0.00
2007,03,11,04,38,0.00
2007,03,11,04,39,0.00
2007,03,11,04,40,0.00
2007,03,11,04,41,0.00
2007,03,11,04,42,0.00
2007,03,11,04,43,0.00
2007,03,11,04,44,0.00
2007,03,11,04,45,0.00
2007,03,11,04,46,1.60
2007,03,11,04,47,0.00
2007,03,11,04,48,0.00
2007,03,11,04,49,0.00
2007,03,11,04,50,0.00
2007,03,11,04,51,0.00
2007,03,11,04,52,0.00
2007,03,11,04,53,0.00
2007,03,11,04,54,0.00
2007,03,11,04,55,0.00
2007,03,11,04,56,0.00
2007,03,11,04,57,0.00
2007,03,11,04,58,0.00
2007,03,11,04,59,0.00
2007,03,11,05,00,0.00
2007,03,11,05,01,0.00
2007,03,11,05,02,0.00
2007,03,11,05,03,0.00
2007,03,11,05,04,0.00
2007,03,11,05,05,0.00
2007,03,11,05,06,0.00
2007,03,11,05,07,0.00
2007,03,11,05,08,0.00
2007,03,11,05,09,0.00
2007,03,11,05,10,0.00
2007,03,11,05,11,0.00
2007,03,11,05,12,0.00
2007,03,11,05,13,0.00
2007,03,11,05,14,0.00
2007,03,11,05,15,0.00
2007,03,11,05,16,0.00
2007,03,11,05,17,0.00
2007,03,11,05,18,0.00
2007,03,11,05,19,0.00
2007,03,11,05,20,0.00
2007,03,11,05,21,1.60
2007,03,11,05,22,1.60
2007,03,11,05,23,1.60
2007,03,11,05,24,1.60
2007,03,11,05,25,1.60
2007,03,11,05,26,0.00
2007,03,11,05,27,1.60
2007,03,11,05,28,1.60
2007,03,11,05,29,0.00
2007,03,11,05,30,0.00
2007,03,11,05,31,0.00
2007,03,11,05,32,1.60
2007,03,11,05,33,1.60
2007,03,11,05,34,0.00
2007,03,11,05,35,0.00
2007,03,11,05,36,0.00
2007,03,11,05,37,0.00
2007,03,11,05,38,0.00
2007,03,11,05,39,0.00
2007,03,11,05,40,0.00
2007,03,11,05,41,0.00
2007,03,11,05,42,0.00
2007,03,11,05,43,0.00
2007,03,11,05,44,0.00
2007,03,11,05,45,0.00
2007,03,11,05,46,0.00
2007,03,11,05,47,0.00
2007,03,11,05,48,0.00
2007,03,11,05,49,0.00
2007,03,11,05,50,0.00
2007,03,11,05,51,0.00
2007,03,11,05,52,0.00
2007,03,11,05,53,0.00
2007,03,11,05,54,0.00
2007,03,11,05,55,0.00
2007,03,11,05,56,0.00
2007,03,11,05,57,0.00
2007,03,11,05,58,0.00
2007,03,11,05,59,0.00
2007,03,11,06,00,0.00
2007,03,11,06,01,0.00
2007,03,11,06,02,1.60
2007,03,11,06,03,0.00
2007,03,11,06,04,0.00
2007,03,11,06,05,0.00
2007,03,11,06,06,0.00
2007,03,11,06,07,0.00
2007,03,11,06,08,0.00
2007,03,11,06,09,0.00
2007,03,11,06,10,0.00
2007,03,11,06,11,0.00
2007,03,11,06,12,0.00
2007,03,11,06,13,0.00
2007,03,11,06,14,0.00
2007,03,11,06,15,0.00
2007,03,11,06,16,0.00
2007,03,11,06,17,0.00
2007,03,11,06,18,0.00
2007,03,11,06,19,0.00
2007,03,11,06,20,0.00
2007,03,11,06,21,0.00
2007,03,11,06,22,0.00
2007,03,11,06,23,0.00
2007,03,11,06,24,0.00
2007,03,11,06,25,0.00
2007,03,11,06,26,0.00
2007,03,11,06,27,0.00
2007,03,11,06,28,0.00
2007,03,11,06,29,0.00
2007,03,11,06,30,0.00
2007,03,11,06,31,0.00
2007,03,11,06,32,1.60
2007,03,11,06,33,1.60
2007,03,11,06,34,0.00
2007,03,11,06,35,0.00
2007,03,11,06,36,0.00
2007,03,11,06,37,0.00
2007,03,11,06,38,0.00
2007,03,11,06,39,0.00
2007,03,11,06,40,0.00
2007,03,11,06,41,0.00
2007,03,11,06,42,0.00
2007,03,11,06,43,0.00
2007,03,11,06,44,0.00
2007,03,11,06,45,0.00
2007,03,11,06,46,0.00
2007,03,11,06,47,0.00
2007,03,11,06,48,0.00
2007,03,11,06,49,0.00
2007,03,11,06,50,0.00
2007,03,11,06,51,1.60
2007,03,11,06,52,0.00
2007,03,11,06,53,1.60
2007,03,11,06,54,3.20
2007,03,11,06,55,0.00
2007,03,11,06,56,0.00
2007,03,11,06,57,1.60
2007,03,11,06,58,0.00
2007,03,11,06,59,3.20
2007,03,11,07,00,3.20
2007,03,11,07,01,3.20
2007,03,11,07,02,1.60
2007,03,11,07,03,0.00
2007,03,11,07,04,3.20
2007,03,11,07,05,1.60
2007,03,11,07,06,1.60
2007,03,11,07,07,0.00
2007,03,11,07,08,0.00
2007,03,11,07,09,4.80
2007,03,11,07,10,4.80
2007,03,11,07,11,3.20
2007,03,11,07,12,3.20
2007,03,11,07,13,3.20
2007,03,11,07,14,0.00
2007,03,11,07,15,1.60
2007,03,11,07,16,0.00
2007,03,11,07,17,0.00
2007,03,11,07,18,3.20
2007,03,11,07,19,3.20
2007,03,11,07,20,3.20
2007,03,11,07,21,0.00
2007,03,11,07,22,0.00
2007,03,11,07,23,0.00
2007,03,11,07,24,0.00
2007,03,11,07,25,1.60
2007,03,11,07,26,1.60
2007,03,11,07,27,0.00
2007,03,11,07,28,0.00
2007,03,11,07,29,0.00
2007,03,11,07,30,0.00
2007,03,11,07,31,0.00
2007,03,11,07,32,0.00
2007,03,11,07,33,0.00
2007,03,11,07,34,0.00
2007,03,11,07,35,0.00
2007,03,11,07,36,0.00
2007,03,11,07,37,0.00
2007,03,11,07,38,0.00
2007,03,11,07,39,0.00
2007,03,11,07,40,0.00
2007,03,11,07,41,0.00
2007,03,11,07,42,0.00
2007,03,11,07,43,0.00
2007,03,11,07,44,0.00
2007,03,11,07,45,0.00
2007,03,11,07,46,0.00
2007,03,11,07,47,0.00
2007,03,11,07,48,0.00
2007,03,11,07,49,0.00
2007,03,11,07,50,0.00
2007,03,11,07,51,0.00
2007,03,11,07,52,0.00
2007,03,11,07,53,0.00
2007,03,11,07,54,0.00
2007,03,11,07,55,0.00
2007,03,11,07,56,0.00
2007,03,11,07,57,0.00
2007,03,11,07,58,0.00
2007,03,11,07,59,0.00
2007,03,11,08,00,0.00
2007,03,11,08,01,0.00
2007,03,11,08,02,1.60
2007,03,11,08,03,1.60
2007,03,11,08,04,0.00
2007,03,11,08,05,0.00
2007,03,11,08,06,0.00
2007,03,11,08,07,0.00
2007,03,11,08,08,0.00
2007,03,11,08,09,0.00
2007,03,11,08,10,0.00
2007,03,11,08,11,0.00
2007,03,11,08,12,0.00
2007,03,11,08,13,0.00
2007,03,11,08,14,0.00
2007,03,11,08,15,1.60
2007,03,11,08,16,1.60
2007,03,11,08,17,0.00
2007,03,11,08,18,1.60
2007,03,11,08,19,0.00
2007,03,11,08,20,0.00
2007,03,11,08,21,0.00
2007,03,11,08,22,0.00
2007,03,11,08,23,0.00
2007,03,11,08,24,0.00
2007,03,11,08,25,1.60
2007,03,11,08,26,1.60
2007,03,11,08,27,0.00
2007,03,11,08,28,0.00
2007,03,11,08,29,0.00
2007,03,11,08,30,0.00
2007,03,11,08,31,1.60
2007,03,11,08,32,0.00
2007,03,11,08,33,0.00
2007,03,11,08,34,0.00
2007,03,11,08,35,0.00
2007,03,11,08,36,1.60
2007,03,11,08,37,1.60
2007,03,11,08,38,1.60
2007,03,11,08,39,1.60
2007,03,11,08,40,1.60
2007,03,11,08,41,0.00
2007,03,11,08,42,1.60
2007,03,11,08,43,1.60
2007,03,11,08,44,0.00
2007,03,11,08,45,0.00
2007,03,11,08,46,0.00
2007,03,11,08,47,0.00
2007,03,11,08,48,1.60
2007,03,11,08,49,4.80
2007,03,11,08,50,3.20
2007,03,11,08,51,1.60
2007,03,11,08,52,1.60
2007,03,11,08,53,1.60
2007,03,11,08,54,1.60
2007,03,11,08,55,1.60
2007,03,11,08,56,1.60
2007,03,11,08,57,4.80
2007,03,11,08,58,4.80
2007,03,11,08,59,1.60
2007,03,11,09,00,0.00
2007,03,11,09,01,0.00
2007,03,11,09,02,0.00
2007,03,11,09,03,0.00
2007,03,11,09,04,1.60
2007,03,11,09,05,1.60
2007,03,11,09,06,1.60
2007,03,11,09,07,3.20
2007,03,11,09,08,3.20
2007,03,11,09,09,1.60
2007,03,11,09,10,0.00
2007,03,11,09,11,1.60
2007,03,11,09,12,4.80
2007,03,11,09,13,1.60
2007,03,11,09,14,0.00
2007,03,11,09,15,0.00
2007,03,11,09,16,0.00
2007,03,11,09,17,0.00
2007,03,11,09,18,0.00
2007,03,11,09,19,1.60
2007,03,11,09,20,1.60
2007,03,11,09,21,0.00
2007,03,11,09,22,0.00
2007,03,11,09,23,0.00
2007,03,11,09,24,0.00
2007,03,11,09,25,0.00
2007,03,11,09,26,0.00
2007,03,11,09,27,0.00
2007,03,11,09,28,0.00
2007,03,11,09,29,3.20
2007,03,11,09,30,1.60
2007,03,11,09,31,0.00
2007,03,11,09,32,1.60
2007,03,11,09,33,1.60
2007,03,11,09,34,1.60
2007,03,11,09,35,1.60
2007,03,11,09,36,1.60
2007,03,11,09,37,0.00
2007,03,11,09,38,0.00
2007,03,11,09,39,0.00
2007,03,11,09,40,0.00
2007,03,11,09,41,0.00
2007,03,11,09,42,0.00
2007,03,11,09,43,0.00
2007,03,11,09,44,0.00
2007,03,11,09,45,0.00
2007,03,11,09,46,1.60
2007,03,11,09,47,1.60
2007,03,11,09,48,0.00
2007,03,11,09,49,0.00
2007,03,11,09,50,0.00
2007,03,11,09,51,0.00
2007,03,11,09,52,0.00
2007,03,11,09,53,0.00
2007,03,11,09,54,0.00
2007,03,11,09,55,0.00
2007,03,11,09,56,0.00
2007,03,11,09,57,0.00
2007,03,11,09,58,0.00
2007,03,11,09,59,0.00
2007,03,11,10,00,1.60
2007,03,11,10,01,0.00
2007,03,11,10,02,0.00
2007,03,11,10,03,0.00
2007,03,11,10,04,0.00
2007,03,11,10,05,0.00
2007,03,11,10,06,0.00
2007,03,11,10,07,0.00
2007,03,11,10,08,0.00
2007,03,11,10,09,1.60
2007,03,11,10,10,1.60
2007,03,11,10,11,1.60
2007,03,11,10,12,1.60
2007,03,11,10,13,3.20
2007,03,11,10,14,3.20
2007,03,11,10,15,1.60
2007,03,11,10,16,4.80
2007,03,11,10,17,3.20
2007,03,11,10,18,1.60
2007,03,11,10,19,0.00
2007,03,11,10,20,1.60
2007,03,11,10,21,1.60
2007,03,11,10,22,1.60
2007,03,11,10,23,3.20
2007,03,11,10,24,3.20
2007,03,11,10,25,3.20
2007,03,11,10,26,3.20
2007,03,11,10,27,1.60
2007,03,11,10,28,3.20
2007,03,11,10,29,1.60
2007,03,11,10,30,4.80
2007,03,11,10,31,3.20
2007,03,11,10,32,4.80
2007,03,11,10,33,1.60
2007,03,11,10,34,1.60
2007,03,11,10,35,1.60
2007,03,11,10,36,0.00
2007,03,11,10,37,3.20
2007,03,11,10,38,1.60
2007,03,11,10,39,0.00
2007,03,11,10,40,3.20
2007,03,11,10,41,1.60
2007,03,11,10,42,3.20
2007,03,11,10,43,3.20
2007,03,11,10,44,3.20
2007,03,11,10,45,3.20
2007,03,11,10,46,1.60
2007,03,11,10,47,1.60
2007,03,11,10,48,1.60
2007,03,11,10,49,1.60
2007,03,11,10,50,0.00
2007,03,11,10,51,1.60
2007,03,11,10,52,1.60
2007,03,11,10,53,3.20
2007,03,11,10,54,3.20
2007,03,11,10,55,3.20
2007,03,11,10,56,1.60
2007,03,11,10,57,0.00
2007,03,11,10,58,1.60
2007,03,11,10,59,3.20
2007,03,11,11,00,3.20
2007,03,11,11,01,6.40
2007,03,11,11,02,4.80
2007,03,11,11,03,4.80
2007,03,11,11,04,3.20
2007,03,11,11,05,1.60
2007,03,11,11,06,0.00
2007,03,11,11,07,3.20
2007,03,11,11,08,3.20
2007,03,11,11,09,1.60
2007,03,11,11,10,1.60
2007,03,11,11,11,3.20
2007,03,11,11,12,3.20
2007,03,11,11,13,3.20
2007,03,11,11,14,4.80
2007,03,11,11,15,1.60
2007,03,11,11,16,3.20
2007,03,11,11,17,3.20
2007,03,11,11,18,3.20
2007,03,11,11,19,4.80
2007,03,11,11,20,4.80
2007,03,11,11,21,3.20
2007,03,11,11,22,1.60
2007,03,11,11,23,3.20
2007,03,11,11,24,4.80
2007,03,11,11,25,8.10
2007,03,11,11,26,6.40
2007,03,11,11,27,1.60
2007,03,11,11,28,0.00
2007,03,11,11,29,1.60
2007,03,11,11,30,4.80
2007,03,11,11,31,6.40
2007,03,11,11,32,3.20
2007,03,11,11,33,6.40
2007,03,11,11,34,3.20
2007,03,11,11,35,3.20
2007,03,11,11,36,3.20
2007,03,11,11,37,3.20
2007,03,11,11,38,1.60
2007,03,11,11,39,1.60
2007,03,11,11,40,1.60
2007,03,11,11,41,1.60
2007,03,11,11,42,3.20
2007,03,11,11,43,3.20
2007,03,11,11,44,1.60
2007,03,11,11,45,9.60
2007,03,11,11,46,3.20
2007,03,11,11,47,3.20
2007,03,11,11,48,1.60
2007,03,11,11,49,3.20
2007,03,11,11,50,3.20
2007,03,11,11,51,3.20
2007,03,11,11,52,1.60
2007,03,11,11,53,1.60
2007,03,11,11,54,3.20
2007,03,11,11,55,4.80
2007,03,11,11,56,3.20
2007,03,11,11,57,3.20
2007,03,11,11,58,1.60
2007,03,11,11,59,0.00
2007,03,11,12,00,1.60
2007,03,11,12,01,6.40
2007,03,11,12,02,1.60
2007,03,11,12,03,1.60
2007,03,11,12,04,1.60
2007,03,11,12,05,3.20
2007,03,11,12,06,4.80
2007,03,11,12,07,1.60
2007,03,11,12,08,3.20
2007,03,11,12,09,1.60
2007,03,11,12,10,3.20
2007,03,11,12,11,3.20
2007,03,11,12,12,1.60
2007,03,11,12,13,1.60
2007,03,11,12,14,1.60
2007,03,11,12,15,3.20
2007,03,11,12,16,3.20
2007,03,11,12,17,3.20
2007,03,11,12,18,1.60
2007,03,11,12,19,3.20
2007,03,11,12,20,4.80
2007,03,11,12,21,3.20
2007,03,11,12,22,6.40
2007,03,11,12,23,1.60
2007,03,11,12,24,3.20
2007,03,11,12,25,1.60
2007,03,11,12,26,1.60
2007,03,11,12,27,3.20
2007,03,11,12,28,1.60
2007,03,11,12,29,3.20
2007,03,11,12,30,3.20
2007,03,11,12,31,8.10
2007,03,11,12,32,3.20
2007,03,11,12,33,1.60
2007,03,11,12,34,3.20
2007,03,11,12,35,4.80
2007,03,11,12,36,1.60
2007,03,11,12,37,4.80
2007,03,11,12,38,4.80
2007,03,11,12,39,1.60
2007,03,11,12,40,4.80
2007,03,11,12,41,4.80
2007,03,11,12,42,3.20
2007,03,11,12,43,6.40
2007,03,11,12,44,1.60
2007,03,11,12,45,3.20
2007,03,11,12,46,6.40
2007,03,11,12,47,3.20
2007,03,11,12,48,3.20
2007,03,11,12,49,4.80
2007,03,11,12,50,3.20
2007,03,11,12,51,8.10
2007,03,11,12,52,4.80
2007,03,11,12,53,4.80
2007,03,11,12,54,6.40
2007,03,11,12,55,3.20
2007,03,11,12,56,1.60
2007,03,11,12,57,4.80
2007,03,11,12,58,4.80
2007,03,11,12,59,3.20
2007,03,11,13,00,1.60
2007,03,11,13,01,4.80
2007,03,11,13,02,6.40
2007,03,11,13,03,3.20
2007,03,11,13,04,3.20
2007,03,11,13,05,3.20
2007,03,11,13,06,3.20
2007,03,11,13,07,3.20
2007,03,11,13,08,3.20
2007,03,11,13,09,1.60
2007,03,11,13,10,4.80
2007,03,11,13,11,1.60
2007,03,11,13,12,3.20
2007,03,11,13,13,1.60
2007,03,11,13,14,3.20
2007,03,11,13,15,3.20
2007,03,11,13,16,1.60
2007,03,11,13,17,0.00
2007,03,11,13,18,1.60
2007,03,11,13,19,1.60
2007,03,11,13,20,6.40
2007,03,11,13,21,3.20
2007,03,11,13,22,3.20
2007,03,11,13,23,3.20
2007,03,11,13,24,3.20
2007,03,11,13,25,6.40
2007,03,11,13,26,4.80
2007,03,11,13,27,8.10
2007,03,11,13,28,3.20
2007,03,11,13,29,1.60
2007,03,11,13,30,1.60
2007,03,11,13,31,3.20
2007,03,11,13,32,4.80
2007,03,11,13,33,3.20
2007,03,11,13,34,9.60
2007,03,11,13,35,8.10
2007,03,11,13,36,16.10
2007,03,11,13,37,19.30
2007,03,11,13,38,3.20
2007,03,11,13,39,9.60
2007,03,11,13,40,8.10
2007,03,11,13,41,8.10
2007,03,11,13,42,4.80
2007,03,11,13,43,3.20
2007,03,11,13,44,3.20
2007,03,11,13,45,4.80
2007,03,11,13,46,4.80
2007,03,11,13,47,6.40
2007,03,11,13,48,4.80
2007,03,11,13,49,4.80
2007,03,11,13,50,4.80
2007,03,11,13,51,4.80
2007,03,11,13,52,3.20
2007,03,11,13,53,3.20
2007,03,11,13,54,4.80
2007,03,11,13,55,4.80
2007,03,11,13,56,4.80
2007,03,11,13,57,4.80
2007,03,11,13,58,1.60
2007,03,11,13,59,0.00
2007,03,11,14,00,4.80
2007,03,11,14,01,3.20
2007,03,11,14,02,3.20
2007,03,11,14,03,6.40
2007,03,11,14,04,6.40
2007,03,11,14,05,4.80
2007,03,11,14,06,1.60
2007,03,11,14,07,4.80
2007,03,11,14,08,8.10
2007,03,11,14,09,4.80
2007,03,11,14,10,11.30
2007,03,11,14,11,8.10
2007,03,11,14,12,4.80
2007,03,11,14,13,1.60
2007,03,11,14,14,3.20
2007,03,11,14,15,1.60
2007,03,11,14,16,3.20
2007,03,11,14,17,1.60
2007,03,11,14,18,1.60
2007,03,11,14,19,3.20
2007,03,11,14,20,4.80
2007,03,11,14,21,3.20
2007,03,11,14,22,4.80
2007,03,11,14,23,14.50
2007,03,11,14,24,3.20
2007,03,11,14,25,4.80
2007,03,11,14,26,3.20
2007,03,11,14,27,3.20
2007,03,11,14,28,16.10
2007,03,11,14,29,6.40
2007,03,11,14,30,4.80
2007,03,11,14,31,16.10
2007,03,11,14,32,16.10
2007,03,11,14,33,6.40
2007,03,11,14,34,6.40
2007,03,11,14,35,4.80
2007,03,11,14,36,25.70
2007,03,11,14,37,6.40
2007,03,11,14,38,11.30
2007,03,11,14,39,11.30
2007,03,11,14,40,9.60
2007,03,11,14,41,6.40
2007,03,11,14,42,6.40
2007,03,11,14,43,16.10
2007,03,11,14,44,6.40
2007,03,11,14,45,3.20
2007,03,11,14,46,3.20
2007,03,11,14,47,4.80
2007,03,11,14,48,11.30
2007,03,11,14,49,6.40
2007,03,11,14,50,4.80
2007,03,11,14,51,4.80
2007,03,11,14,52,6.40
2007,03,11,14,53,3.20
2007,03,11,14,54,3.20
2007,03,11,14,55,8.10
2007,03,11,14,56,4.80
2007,03,11,14,57,3.20
2007,03,11,14,58,1.60
2007,03,11,14,59,6.40
2007,03,11,15,00,4.80
2007,03,11,15,01,3.20
2007,03,11,15,02,4.80
2007,03,11,15,03,9.60
2007,03,11,15,04,8.10
2007,03,11,15,05,14.50
2007,03,11,15,06,3.20
2007,03,11,15,07,14.50
2007,03,11,15,08,9.60
2007,03,11,15,09,4.80
2007,03,11,15,10,4.80
2007,03,11,15,11,4.80
2007,03,11,15,12,17.70
2007,03,11,15,13,8.10
2007,03,11,15,14,8.10
2007,03,11,15,15,20.90
2007,03,11,15,16,16.10
2007,03,11,15,17,16.10
2007,03,11,15,18,14.50
2007,03,11,15,19,3.20
2007,03,11,15,20,24.20
2007,03,11,15,21,19.30
2007,03,11,15,22,3.20
2007,03,11,15,23,1.60
2007,03,11,15,24,4.80
2007,03,11,15,25,4.80
2007,03,11,15,26,27.40
2007,03,11,15,27,24.20
2007,03,11,15,28,8.10
2007,03,11,15,29,14.50
2007,03,11,15,30,11.30
2007,03,11,15,31,11.30
2007,03,11,15,32,4.80
2007,03,11,15,33,4.80
2007,03,11,15,34,6.40
2007,03,11,15,35,8.10
2007,03,11,15,36,4.80
2007,03,11,15,37,17.70
2007,03,11,15,38,4.80
2007,03,11,15,39,6.40
2007,03,11,15,40,17.70
2007,03,11,15,41,6.40
2007,03,11,15,42,12.90
2007,03,11,15,43,8.10
2007,03,11,15,44,1.60
2007,03,11,15,45,3.20
2007,03,11,15,46,4.80
2007,03,11,15,47,6.40
2007,03,11,15,48,11.30
2007,03,11,15,49,6.40
2007,03,11,15,50,1.60
2007,03,11,15,51,1.60
2007,03,11,15,52,1.60
2007,03,11,15,53,3.20
2007,03,11,15,54,27.40
2007,03,11,15,55,14.50
2007,03,11,15,56,14.50
2007,03,11,15,57,9.60
2007,03,11,15,58,9.60
2007,03,11,15,59,16.10
2007,03,11,16,00,4.80
2007,03,11,16,01,17.70
2007,03,11,16,02,9.60
2007,03,11,16,03,19.30
2007,03,11,16,04,11.30
2007,03,11,16,05,11.30
2007,03,11,16,06,11.30
2007,03,11,16,07,20.90
2007,03,11,16,08,11.30
2007,03,11,16,09,3.20
2007,03,11,16,10,17.70
2007,03,11,16,11,22.50
2007,03,11,16,12,16.10
2007,03,11,16,13,17.70
2007,03,11,16,14,22.50
2007,03,11,16,15,17.70
2007,03,11,16,16,11.30
2007,03,11,16,17,29.00
2007,03,11,16,18,11.30
2007,03,11,16,19,29.00
2007,03,11,16,20,16.10
2007,03,11,16,21,11.30
2007,03,11,16,22,8.10
2007,03,11,16,23,24.20
2007,03,11,16,24,16.10
2007,03,11,16,25,22.50
2007,03,11,16,26,6.40
2007,03,11,16,27,12.90
2007,03,11,16,28,16.10
2007,03,11,16,29,16.10
2007,03,11,16,30,16.10
2007,03,11,16,31,16.10
2007,03,11,16,32,14.50
2007,03,11,16,33,19.30
2007,03,11,16,34,16.10
2007,03,11,16,35,24.20
2007,03,11,16,36,40.20
2007,03,11,16,37,29.00
2007,03,11,16,38,14.50
2007,03,11,16,39,20.90
2007,03,11,16,40,6.40
2007,03,11,16,41,29.00
2007,03,11,16,42,9.60
2007,03,11,16,43,6.40
2007,03,11,16,44,8.10
2007,03,11,16,45,17.70
2007,03,11,16,46,12.90
2007,03,11,16,47,6.40
2007,03,11,16,48,14.50
2007,03,11,16,49,25.70
2007,03,11,16,50,11.30
2007,03,11,16,51,20.90
2007,03,11,16,52,22.50
2007,03,11,16,53,17.70
2007,03,11,16,54,35.40
2007,03,11,16,55,17.70
2007,03,11,16,56,9.60
2007,03,11,16,57,16.10
2007,03,11,16,58,11.30
2007,03,11,16,59,20.90
2007,03,11,17,00,11.30
2007,03,11,17,01,6.40
2007,03,11,17,02,24.20
2007,03,11,17,03,4.80
2007,03,11,17,04,1.60
2007,03,11,17,05,19.30
2007,03,11,17,06,14.50
2007,03,11,17,07,16.10
2007,03,11,17,08,16.10
2007,03,11,17,09,16.10
2007,03,11,17,10,4.80
2007,03,11,17,11,27.40
2007,03,11,17,12,20.90
2007,03,11,17,13,9.60
2007,03,11,17,14,17.70
2007,03,11,17,15,11.30
2007,03,11,17,16,19.30
2007,03,11,17,17,24.20
2007,03,11,17,18,16.10
2007,03,11,17,19,17.70
2007,03,11,17,20,16.10
2007,03,11,17,21,17.70
2007,03,11,17,22,17.70
2007,03,11,17,23,16.10
2007,03,11,17,24,20.90
2007,03,11,17,25,17.70
2007,03,11,17,26,24.20
2007,03,11,17,27,24.20
2007,03,11,17,28,16.10
2007,03,11,17,29,16.10
2007,03,11,17,30,32.20
2007,03,11,17,31,14.50
2007,03,11,17,32,24.20
2007,03,11,17,33,17.70
2007,03,11,17,34,4.80
2007,03,11,17,35,16.10
2007,03,11,17,36,14.50
2007,03,11,17,37,16.10
2007,03,11,17,38,9.60
2007,03,11,17,39,19.30
2007,03,11,17,40,11.30
2007,03,11,17,41,22.50
2007,03,11,17,42,11.30
2007,03,11,17,43,11.30
2007,03,11,17,44,9.60
2007,03,11,17,45,14.50
2007,03,11,17,46,20.90
2007,03,11,17,47,9.60
2007,03,11,17,48,6.40
2007,03,11,17,49,40.20
2007,03,11,17,50,16.10
2007,03,11,17,51,14.50
2007,03,11,17,52,16.10
2007,03,11,17,53,6.40
2007,03,11,17,54,6.40
2007,03,11,17,55,8.10
2007,03,11,17,56,16.10
2007,03,11,17,57,11.30
2007,03,11,17,58,17.70
2007,03,11,17,59,19.30
2007,03,11,18,00,17.70
2007,03,11,18,01,11.30
2007,03,11,18,02,22.50
2007,03,11,18,03,9.60
2007,03,11,18,04,6.40
2007,03,11,18,05,22.50
2007,03,11,18,06,25.70
2007,03,11,18,07,25.70
2007,03,11,18,08,8.10
2007,03,11,18,09,11.30
2007,03,11,18,10,16.10
2007,03,11,18,11,16.10
2007,03,11,18,12,11.30
2007,03,11,18,13,20.90
2007,03,11,18,14,17.70
2007,03,11,18,15,9.60
2007,03,11,18,16,6.40
2007,03,11,18,17,11.30
2007,03,11,18,18,16.10
2007,03,11,18,19,17.70
2007,03,11,18,20,24.20
2007,03,11,18,21,33.80
2007,03,11,18,22,9.60
2007,03,11,18,23,11.30
2007,03,11,18,24,11.30
2007,03,11,18,25,14.50
2007,03,11,18,26,19.30
2007,03,11,18,27,24.20
2007,03,11,18,28,8.10
2007,03,11,18,29,20.90
2007,03,11,18,30,8.10
2007,03,11,18,31,6.40
2007,03,11,18,32,17.70
2007,03,11,18,33,33.80
2007,03,11,18,34,9.60
2007,03,11,18,35,8.10
2007,03,11,18,36,9.60
2007,03,11,18,37,4.80
2007,03,11,18,38,16.10
2007,03,11,18,39,9.60
2007,03,11,18,40,11.30
2007,03,11,18,41,14.50
2007,03,11,18,42,11.30
2007,03,11,18,43,20.90
2007,03,11,18,44,9.60
2007,03,11,18,45,17.70
2007,03,11,18,46,30.60
2007,03,11,18,47,9.60
2007,03,11,18,48,16.10
2007,03,11,18,49,25.70
2007,03,11,18,50,9.60
2007,03,11,18,51,9.60
2007,03,11,18,52,20.90
2007,03,11,18,53,9.60
2007,03,11,18,54,8.10
2007,03,11,18,55,6.40
2007,03,11,18,56,4.80
2007,03,11,18,57,24.20
2007,03,11,18,58,19.30
2007,03,11,18,59,29.00